Presure
233 193 132 110 308 124 361 141 140 136 129 131 165 135 130 171 118 130 131 132 125 149 151 147 147 147 150 144 153 133 108 159 171 147 146 127 125 151 126 144 131 137 146
306 299 303 325 307 322 329 135 142 325 359 385 378 389 332 203 261 407 134 139 129 140 141 145 133 103 140 151 135 168 152 151 150 133 138 152 144 146 158 163 162 152 166
298 86 297 281 281 190 257 294 316 302 340 364 393 396 403 135 178 126 262 133 317 130 131 128 142 149 137 134 144 143 138 141 153 169 149 159 154 143 136 146 156 109 159
284 215 169 260 278 283 278 284 300 308 319 326 375 213 225 486 506 123 334 135 154 184 151 157 201 144 140 150 147 145 129 154 145 167 156 158 158 168 149 163 151 160 160
266 270 269 259 272 259 264 260 267 285 258 318 341 403 536 523 290 366 394 366 357 368 135 391 164 160 155 151 142 151 156 133 180 158 144 137 136 180 172 146 109 120 146
269 261 266 266 259 253 254 243 237 253 254 304 324 366 514 490 465 487 339 438 358 339 341 376 375 218 197 135 264 139 140 163 155 221 174 158 147 167 142 189 161 113 183
257 260 255 259 254 256 267 264 267 262 285 297 304 334 372 508 453 443 446 426 405 393 371 354 358 384 277 154 141 168 154 161 142 283 266 153 161 156 198 125 150 126 121
253 249 256 261 258 259 261 265 264 260 267 277 288 306 325 394 484 440 415 409 403 394 383 373 347 341 348 144 213 289 142 141 212 260 156 129 228 120 127 133 145 145 123
222 223 224 265 264 255 240 250 277 286 275 277 274 276 282 311 330 474 441 420 415 406 405 452 361 423 330 350 146 139 273 147 139 144 155 154 168 255 124 126 133 123 133
227 215 231 229 230 214 233 227 209 237 252 265 275 209 278 296 308 331 157 142 148 229 326 235 144 249 312 219 234 147 197 204 186 155 135 127 130 127 130 137 141 145 147
268 256 180 214 235 214 192 217 215 251 267 239 139 223 234 234 287 277 297 270 328 349 159 153 156 153 157 155 148 132 144 149 150 121 120 220 136 214 193 137 137 140 140
172 247 261 273 261 183 184 295 302 299 206 187 150 147 147 150 197 135 160 158 145 137 142 144 133 135 139 133 121 132 131 132 126 127 156 152 157 158 153 156 156 158 156
295 287 257 251 263 261 259 254 253 260 273 276 283 239 271 287 250 262 268 259 258 266 184 250 185 184 274 275 185 163 185 272 165 178 156 178 179 153 157 156 161 156 182
251 255 249 230 225 234 253 246 262 246 250 239 270 263 261 269 262 287 263 257 250 253 255 254 227 259 261 264 264 261 259 263 265 125 264 266 266 212 226 269 272 271 268
205 201 200 199 201 200 203 206 221 227 237 248 234 228 263 254 256 267 272 249 260 275 269 234 243 239 169 249 201 251 246 244 242 248 249 246 253 259 265 264 262 258 261
238 232 232 225 237 242 244 228 246 245 246 239 249 204 205 248 247 237 255 243 253 268 269 271 261 260 266 269 241 240 238 241 240 240 239 242 243 243 242 242 243 246 250
226 211 212 202 209 216 231 229 232 235 246 249 245 247 242 247 242 233 245 226 248 237 239 250 253 260 261 255 266 264 269 245 248 261 263 274 274 273 283 260 253 243 244
129 132 134 213 215 220 225 224 223 223 222 224 226 223 232 225 237 247 242 239 244 230 177 247 244 236 243 239 247 240 238 247 245 240 252 241 238 263 250 250 262 280 297
180 178 185 194 204 204 211 216 212 211 216 213 213 227 223 224 224 234 234 231 220 235 239 232 240 243 256 241 236 258 252 256 254 178 232 251 253 259 259 248 238 274 275
188 161 206 202 195 194 202 211 210 195 222 215 208 220 214 220 220 223 222 227 233 229 233 232 229 238 238 249 214 248 219 251 234 231 242 253 253 255 255 240 271 263 252
194 200 190 178 182 202 205 191 198 219 211 213 212 213 208 208 209 225 216 208 222 224 226 224 236 224 220 237 258 223 235 250 248 243 241 254 249 255 287 329 319 328 269
200 195 195 197 188 200 195 205 204 208 212 222 201 208 213 206 204 211 213 223 225 215 219 228 207 231 247 239 237 222 238 237 248 229 250 249 259 246 344 333 326 328 395
209 188 164 200 199 197 193 201 198 206 210 204 212 215 190 200 214 214 219 205 208 223 222 209 232 221 240 250 219 245 255 231 230 238 250 258 268 274 348 324 439 424 423
203 173 199 198 198 201 193 199 203 195 210 214 205 219 206 221 209 207 215 223 219 207 221 223 221 232 229 225 258 245 254 246 234 240 251 274 286 323 334 422 402 395 405
197 172 194 173 201 168 201 201 202 196 205 206 212 204 217 209 207 224 215 219 221 220 210 220 238 224 242 249 260 246 236 240 244 241 255 275 297 330 424 395 377 390 364
200 184 205 134 209 200 203 192 201 201 206 201 211 215 208 213 212 210 221 219 215 218 225 220 222 233 229 255 230 240 227 231 228 249 260 281 329 329 400 363 377 362 359
Wind_Speed
93 79 56 37 78 55 51 63 62 59 56 58 67 59 55 61 45 53 56 55 50 62 63 60 57 55 58 52 59 46 48 67 68 55 53 47 51 60 50 54 48 50 52
66 65 58 38 41 36 35 61 62 39 42 47 54 61 67 65 68 80 47 58 47 58 54 55 48 42 49 59 50 66 58 59 56 51 51 63 51 58 65 70 69 61 66
44 22 33 39 43 33 37 37 35 40 42 43 47 53 61 62 54 46 64 56 89 50 50 48 53 56 51 51 52 48 47 53 59 68 59 68 61 54 54 59 65 49 66
32 28 31 43 33 29 34 37 37 40 42 46 50 54 56 42 56 43 71 56 56 64 65 69 81 56 53 59 56 53 52 57 56 66 68 65 68 73 67 71 62 71 72
31 33 30 36 29 33 33 36 40 36 33 46 53 52 32 31 52 50 69 70 69 73 56 77 63 63 63 58 51 55 57 54 72 60 56 60 62 77 76 64 53 50 62
19 22 24 26 28 29 32 39 42 42 47 43 53 56 28 19 25 38 41 57 68 68 70 73 79 63 71 53 103 55 54 65 66 91 77 68 60 66 60 83 68 50 81
16 17 19 22 27 30 32 33 35 38 39 46 48 58 61 12 21 22 33 43 52 58 71 71 70 77 75 54 53 60 57 55 62 106 96 63 67 61 87 55 67 57 56
19 21 25 26 27 29 32 33 35 31 35 39 45 50 60 46 16 20 26 28 35 43 53 59 41 63 62 57 73 110 60 64 85 96 64 56 92 54 55 57 62 66 64
14 16 18 27 28 26 26 29 31 34 34 36 37 40 42 53 50 11 16 25 24 29 34 26 22 22 34 56 60 60 98 64 63 67 67 64 70 90 59 60 63 63 67
19 17 22 22 23 20 26 23 26 28 30 35 39 24 39 46 50 57 41 49 50 35 23 32 52 36 43 50 49 62 71 73 67 64 64 63 62 63 65 67 69 72 72
25 25 28 26 25 24 25 26 26 30 32 26 46 26 28 24 42 33 42 32 50 44 50 52 51 52 52 54 59 60 62 62 63 67 69 67 69 67 66 69 71 73 74
25 27 28 28 27 29 29 30 30 33 30 32 45 45 44 43 25 48 45 46 48 52 52 53 56 55 55 58 58 63 65 66 66 68 69 72 74 75 75 76 76 77 78
20 21 27 29 30 30 31 33 34 36 42 42 43 27 32 36 29 31 29 25 24 25 40 9 42 44 9 7 47 62 52 25 63 58 68 63 67 77 80 82 80 82 73
31 33 32 29 31 32 31 29 39 33 36 36 46 42 40 42 33 39 29 25 22 19 17 14 19 14 13 13 15 17 23 25 27 69 32 35 38 61 58 40 40 41 46
29 30 30 30 31 32 33 34 35 35 35 38 35 34 48 42 42 44 38 24 23 27 23 19 18 20 50 20 39 24 28 32 35 37 41 43 44 46 48 49 51 55 54
37 33 32 31 39 40 41 37 39 39 38 38 42 35 35 40 38 32 39 34 35 30 26 22 19 16 13 13 29 32 35 37 40 42 47 50 51 52 53 55 58 60 61
37 29 32 29 34 34 35 35 38 39 44 44 44 44 43 43 39 34 39 30 37 31 32 34 34 30 27 30 26 28 29 39 41 38 40 42 45 46 45 59 63 68 69
39 42 43 37 38 39 38 36 34 33 32 34 35 33 42 36 43 44 40 37 39 31 36 37 35 34 37 36 35 44 47 43 46 53 49 57 62 60 63 63 62 61 69
31 31 31 36 35 34 37 38 38 36 35 34 36 39 35 38 37 46 44 39 36 38 39 34 40 40 46 44 45 43 44 46 47 64 62 52 56 63 63 70 79 69 74
27 38 35 33 32 33 37 43 40 34 47 41 38 37 35 38 38 39 39 42 45 40 43 41 41 46 46 52 44 51 53 52 54 56 56 59 60 63 66 78 72 75 87
35 41 33 36 36 42 45 39 40 53 42 42 42 41 41 39 39 44 42 42 43 45 46 45 51 47 47 53 58 50 55 55 59 58 57 66 65 69 81 84 84 86 89
44 42 41 41 37 46 42 51 50 54 52 57 40 41 45 46 45 43 44 49 51 47 48 50 49 53 63 58 57 54 58 58 59 55 67 70 77 72 86 87 88 92 90
53 42 46 51 49 49 48 54 46 57 59 52 55 53 46 46 49 49 51 50 51 56 55 51 58 54 66 66 57 61 63 62 59 62 69 76 81 83 86 89 62 59 55
58 50 53 55 55 55 52 58 60 49 61 62 54 62 51 58 53 50 53 58 55 54 60 60 59 63 61 60 71 64 65 66 64 67 73 82 87 94 90 61 56 53 43
59 49 52 54 63 49 59 61 62 57 63 58 63 55 61 55 54 61 56 59 61 61 60 64 71 64 71 72 72 66 65 69 70 74 79 88 92 91 59 56 56 43 41
70 63 70 43 70 62 65 59 67 63 66 63 67 67 61 63 61 61 64 63 63 65 68 65 66 71 70 73 65 69 67 69 69 77 83 89 91 90 53 54 48 38 35
Wind_Direction
279 279 273 271 286 270 290 270 271 270 270 271 270 272 272 270 272 273 276 269 262 267 267 268 272 273 268 272 266 268 277 269 263 276 278 264 267 278 271 282 272 277 280
292 290 290 300 297 300 306 269 269 308 306 295 286 278 270 266 263 253 276 273 279 274 273 271 270 273 271 268 269 263 271 272 269 272 272 277 275 276 280 276 279 283 279
296 249 307 302 302 283 301 313 324 310 324 319 305 289 274 272 271 279 261 272 249 276 274 271 271 268 267 268 270 268 265 268 269 265 273 271 276 274 272 277 279 279 278
309 297 285 297 302 315 315 326 336 344 343 333 333 275 269 267 247 275 254 270 273 253 263 261 255 267 266 266 266 266 262 267 266 264 264 267 266 266 274 274 277 277 277
305 305 305 301 311 298 318 316 322 329 331 351 349 346 311 267 260 250 247 248 247 247 272 243 262 260 262 264 265 264 264 259 261 268 260 259 264 263 267 271 283 277 275
311 307 318 326 322 315 315 304 292 312 313 355 0 2 338 264 251 235 243 238 245 243 244 243 240 252 252 267 248 262 258 258 262 254 267 261 263 269 266 264 272 279 271
324 326 322 324 324 323 325 324 325 327 344 360 5 10 16 292 239 235 228 232 236 239 244 243 242 237 244 264 263 261 259 263 257 253 255 262 268 264 260 275 274 280 281
317 325 322 320 323 323 330 332 339 333 342 358 7 16 20 23 230 233 234 232 232 232 237 242 243 242 236 262 243 242 253 258 261 259 264 269 257 275 274 273 269 272 282
328 335 335 333 337 342 349 351 342 347 351 357 8 9 17 28 32 225 236 238 236 234 242 232 198 207 232 235 265 262 244 257 267 267 267 268 266 262 273 274 274 278 277
317 321 330 328 329 328 335 339 320 346 356 3 7 307 19 28 38 42 274 270 268 260 252 231 262 233 226 250 253 256 258 257 255 258 272 278 274 277 277 274 273 271 273
331 330 293 314 330 318 305 321 325 344 354 343 273 336 344 352 29 33 49 32 51 58 265 265 262 260 258 257 259 268 263 263 264 282 286 270 274 273 271 271 273 273 274
286 338 336 336 329 297 299 355 7 15 313 292 282 281 280 277 307 275 271 268 269 271 276 275 272 268 265 268 279 268 271 270 276 274 265 267 270 273 274 274 274 274 274
355 4 13 10 18 15 12 4 2 12 24 25 27 350 13 24 5 18 27 29 30 31 275 346 271 270 47 23 266 264 266 280 267 267 268 269 270 271 272 274 275 276 276
34 32 25 2 356 3 24 8 23 1 6 356 23 19 17 23 18 30 15 10 8 10 8 360 309 341 330 312 292 281 273 274 274 273 273 271 267 270 270 270 271 272 269
344 338 337 331 331 327 331 336 347 355 358 12 355 348 22 16 16 19 23 1 13 25 13 319 322 310 278 299 282 292 286 282 279 281 279 278 279 277 276 271 269 269 267
23 19 19 6 19 14 11 3 12 12 10 6 13 323 323 12 10 353 13 2 3 12 12 3 338 328 344 341 290 286 283 282 279 279 278 278 276 275 274 275 276 275 274
23 359 355 343 352 357 12 12 15 16 15 15 11 10 8 6 0 350 5 338 5 347 346 348 341 336 328 316 321 311 315 288 289 293 291 305 297 292 299 282 278 275 272
293 294 293 5 3 5 6 3 2 1 359 4 7 357 6 352 1 360 357 354 358 337 300 348 340 325 324 311 309 302 299 302 295 288 300 286 284 297 283 279 284 288 285
310 313 334 346 351 351 355 356 349 346 347 342 341 1 357 357 354 359 353 344 326 344 344 330 335 335 336 322 313 320 316 319 315 282 290 300 301 299 297 285 282 286 281
324 310 348 347 336 334 342 348 345 329 349 344 334 348 342 347 345 345 342 344 343 334 335 331 325 332 329 329 300 316 301 318 298 290 310 309 305 303 293 277 288 279 275
326 338 322 310 315 340 340 326 331 342 337 338 336 334 325 322 323 343 330 320 333 332 330 325 334 318 313 324 323 309 308 315 314 313 306 310 306 304 307 297 295 291 285
331 329 325 327 315 332 325 335 335 334 335 336 321 327 332 325 318 323 324 333 331 318 322 328 306 326 330 323 316 308 310 310 312 299 312 313 313 302 303 298 299 296 291
327 315 299 326 326 325 320 325 322 329 328 326 329 329 311 314 327 325 325 313 313 327 322 310 328 317 328 326 311 315 320 310 312 312 315 315 313 313 306 306 298 294 293
320 301 320 321 320 322 316 319 321 315 323 323 320 324 319 324 315 314 322 323 318 308 319 319 316 323 317 313 321 317 321 315 315 316 316 317 317 317 315 304 301 299 295
312 297 313 297 314 302 314 314 314 310 316 316 319 314 321 316 314 319 315 317 317 317 310 315 321 314 323 322 320 316 314 317 316 317 319 319 320 321 308 307 305 301 297
307 304 311 290 310 308 310 303 309 309 311 309 312 315 313 314 312 312 315 314 312 313 314 312 314 317 315 321 313 313 313 316 316 317 319 320 321 322 307 307 307 301 302